www.pogodaiklimat.ru

Погода и климат >> Архив погоды >> Великобритания >> Баллипатрик Форест


ПОГОДА в Баллипатрик Форест

  • Прогноз погоды в Баллипатрик Форест
  • Монитор погоды в Баллипатрик Форест

АРХИВ ПОГОДЫ в Баллипатрик Форест

Время (UTC), дата Ветер
(напр.,м/с)
 
Видим.   Явления Облачность Т
(С)
Тd
(С)
f
(%)
Тe
(С)
Тes
(С)
Комфортность P
(гПа)
Po
(гПа)
Тmin
(С)
Tmax
(С)
R
(мм)
R24
(мм)
S
(см)
22 11.06 СВ 6 45 км н/о +10.9 +7.6 80 +8 +8 1022.0 1003.1
23 11.06 СВ 6 40 км н/о +10.7 +7.8 82 +7 +7 1021.9 1002.9
00 12.06 СВ 6 50 км н/о +10.5 +7.8 83 +7 +7 1021.6 1002.6
01 12.06 СВ 6 45 км н/о +10.2 +7.5 83 +7 +7 1021.1 1002.1
02 12.06 СВ 7 50 км н/о +10.1 +6.8 80 +7 +7 1020.6 1001.6
03 12.06 СВ 6 45 км н/о +9.8 +6.8 82 +6 +6 1020.2 1001.1
04 12.06 СВ 6 50 км н/о +9.5 +6.0 79 +6 +6 1019.5 1000.5
05 12.06 СВ 6 50 км н/о +9.0 +6.0 81 +5 +5 1019.6 1000.5
06 12.06 СВ 5 45 км н/о +9.5 +7.1 85 +6 +6 1019.5 1000.5 +8.8
07 12.06 СВ 5 30 км н/о +10.1 +6.6 79 +7 +7 1019.2 1000.2
08 12.06 СВ 5 24 км н/о +11.3 +8.0 80 +9 +9 1019.1 1000.2
09 12.06 СВ 7 35 км н/о +11.8 +7.2 73 +9 +9 1018.6 999.8
10 12.06 СВ 7 35 км н/о +12.2 +6.9 70 +9 +9 1018.4 999.6
11 12.06 СВ 5 40 км н/о +11.9 +7.0 72 +10 +10 1018.1 999.3
12 12.06 СВ 5 45 км н/о +12.6 +6.5 66 +11 +11 1017.6 998.8
13 12.06 С 5 35 км н/о +13.4 +8.1 70 +11 +11 1017.1 998.4
14 12.06 СВ 7 35 км н/о +13.7 +7.5 66 +12 +12 1016.3 997.7
15 12.06 СВ 8
{13}
26 км н/о +13.4 +7.5 67 +11 +11 1016.0 997.3
16 12.06 В 7
{13}
30 км н/о +12.3 +8.3 77 +9 +9 1015.5 996.7
17 12.06 СВ 8 27 км н/о +11.9 +8.0 77 +9 +9 1014.9 996.1
18 12.06 СВ 7
{13}
35 км слаб. морось с дождем н/о +11.6 +8.0 79 +9 +9 1014.6 995.8 +14.2 0.0
19 12.06 СВ 7 17 км слаб. ливневой дождь н/о +10.7 +8.4 86 +7 +7 1014.5 995.7
20 12.06 СВ 8 17 км слаб. дождь н/о +10.0 +8.5 90 +6 +6 1014.8 995.9
21 12.06 СВ 7 7000 м слаб. дождь н/о +9.4 +8.6 95 +5 +5 1014.8 995.9
22 12.06 СВ 7 10 км дождь н/о +9.1 +8.6 97 +5 +5 1014.2 995.3
23 12.06 СВ 8 23 км слаб. дождь н/о +9.1 +8.5 96 +4 +4 1013.6 994.7
00 13.06 СВ 7 45 км в посл. час дождь н/о +9.1 +8.1 93 +5 +5 1012.8 993.9 6
01 13.06 СВ 5 50 км слаб. морось с дождем н/о +9.2 +7.6 90 +6 +6 1012.1 993.2
02 13.06 СВ 6 40 км слаб. ливневой дождь н/о +9.1 +7.3 88 +5 +5 1011.4 992.5
03 13.06 СВ 5 7000 м дождь н/о +8.3 +7.4 94 +5 +5 1011.0 992.0
04 13.06 СВ 7 45 км в посл. час дождь н/о +8.5 +6.8 89 +4 +4 1010.5 991.6
05 13.06 С 3 40 км н/о +8.5 +7.6 94 +6 +6 1010.2 991.3
06 13.06 СВ 5 40 км н/о +8.4 +6.0 85 +5 +5 1009.5 990.6 +8.2 7
07 13.06 СВ 7 30 км н/о +8.2 +5.5 83 +4 +4 1008.9 990.0
08 13.06 СВ 6 30 км н/о +8.0 +4.7 80 +4 +4 1008.5 989.6
09 13.06 СВ 6 26 км н/о +9.9 +6.1 77 +7 +7 1007.7 988.9
10 13.06 С 5 30 км н/о +9.8 +5.7 76 +7 +7 1007.0 988.2
11 13.06 С 4 35 км н/о +9.3 +4.8 73 +6 +6 1006.7 987.9
12 13.06 С 7 27 км н/о +9.7 +5.6 76 +6 +6 1005.9 987.1
13 13.06 С 6 35 км н/о +9.5 +5.7 77 +6 +6 1005.6 986.8
14 13.06 С 6 26 км н/о +11.1 +8.3 83 +8 +8 1005.0 986.3
15 13.06 С 6 27 км н/о +8.7 +6.0 83 +5 +5 1004.7 985.9
16 13.06 С 5 35 км н/о +8.9 +6.1 83 +5 +5 1004.2 985.4
17 13.06 СЗ 6 24 км в посл. час дождь н/о +8.8 +5.4 79 +5 +5 1003.7 984.9
18 13.06 СЗ 6 35 км н/о +9.0 +5.7 80 +5 +5 1003.5 984.7 +11.1 0.0
19 13.06 С 5 35 км н/о +8.5 +5.7 83 +5 +5 1003.4 984.6
20 13.06 СЗ 5 45 км н/о +8.1 +4.4 77 +5 +5 1003.3 984.5
21 13.06 СЗ 4 40 км н/о +8.1 +5.7 85 +5 +5 1003.5 984.7
22 13.06 СЗ 3 9000 м ливневой дождь н/о +7.1 +5.0 86 +4 +4 1003.7 984.8
23 13.06 З 3 26 км слаб. ливневой дождь н/о +7.0 +6.4 96 +4 +4 1003.6 984.7
00 14.06 З 5 18 км слаб. морось н/о +6.4 +5.9 97 +2 +2 1003.3 984.4 0.8
01 14.06 ЮЗ 4 23 км слаб. ливневой дождь н/о +6.2 +5.6 96 +2 +2 1003.2 984.3
02 14.06 ЮЗ 5 35 км в посл. час дождь н/о +5.4 +4.8 96 +1 +1 1002.9 983.9
03 14.06 ЮЗ 5 21 км н/о +4.9 +4.5 97 0 0 1002.7 983.6
04 14.06 ЮЗ 4 30 км н/о +5.3 +5.0 98 +1 +1 1002.8 983.8
05 14.06 ЮЗ 5 50 км н/о +5.3 +4.6 95 +1 +1 1002.9 983.9
06 14.06 ЮЗ 4 50 км н/о +6.3 +5.4 94 +2 +2 1003.0 984.1 +4.5 2
07 14.06 ЮЗ 3 40 км н/о +8.2 +6.2 87 +5 +5 1003.1 984.3
08 14.06 ЮЗ 4 28 км н/о +9.7 +6.4 80 +7 +7 1003.3 984.6
09 14.06 ЮЗ 5 30 км н/о +10.8 +4.9 67 +8 +8 1003.4 984.8
10 14.06 ЮЗ 4 35 км н/о +11.6 +4.6 62 +10 +10 1003.5 985.0
11 14.06 ЮЗ 4 35 км н/о +13.3 +4.8 56 +12 +12 1003.5 985.1
12 14.06 З 4 26 км н/о +12.7 +6.5 66 +11 +11 1003.8 985.3
13 14.06 Ю 4 35 км н/о +12.4 +6.8 69 +11 +11 1003.9 985.3
14 14.06 ЮЗ 4 29 км н/о +13.1 +6.1 62 +12 +12 1004.0 985.5
15 14.06 Ю 5 45 км н/о +11.6 +6.6 71 +9 +9 1004.3 985.7
16 14.06 Ю 5 10 км в посл. час дождь н/о +10.4 +8.7 89 +7 +7 1004.6 986.0
17 14.06 Ю 5 8000 м ливневой дождь н/о +9.9 +9.1 95 +7 +7 1004.8 986.0
18 14.06 Ю 4 12 км в посл. час дождь н/о +10.1 +9.5 96 +7 +7 1004.7 986.0 +13.9 0.4
19 14.06 Ю 5 14 км слаб. морось с дождем н/о +10.0 +9.3 95 +7 +7 1004.6 985.9
20 14.06 ЮВ 4 28 км в посл. час дождь н/о +9.5 +8.8 95 +6 +6 1004.5 985.8
21 14.06 Ю 4 18 км в посл. час дождь н/о +8.6 +8.1 97 +5 +5 1004.7 985.9
22 14.06 Ю 3 14 км в посл. час дождь н/о +9.0 +8.4 96 +6 +6 1005.0 986.2
23 14.06 ЮВ 4 16 км н/о +9.2 +8.6 96 +6 +6 1004.9 986.1
00 15.06 Ю 2 18 км н/о +9.7 +8.8 94 +8 +8 1005.0 986.3 0.0
01 15.06 Ю 1 19 км н/о +9.7 +8.6 93 +9 +9 1005.2 986.5
02 15.06 Ю 2 23 км н/о +9.7 +8.4 92 +8 +8 1005.2 986.5
03 15.06 Ю 2 16 км слаб. ливневой дождь н/о +9.4 +8.3 93 +8 +8 1005.5 986.7
04 15.06 ЮЗ 2 13 км слаб. морось с дождем н/о +9.0 +8.1 94 +8 +8 1005.8 987.0
05 15.06 ЮЗ 2 13 км слаб. дождь н/о +9.0 +8.3 95 +8 +8 1005.8 987.0
06 15.06 ЮЗ 1 16 км слаб. дождь н/о +9.6 +8.7 94 +9 +9 1005.9 987.1 +8.5 0.4
07 15.06 Ю 2 45 км слаб. дождь н/о +10.3 +8.7 90 +9 +9 1006.3 987.6
08 15.06 ЮВ 3 21 км слаб. дождь н/о +10.0 +8.6 91 +8 +8 1006.4 987.7
09 15.06 ЮВ 3 20 км слаб. дождь н/о +10.5 +9.5 94 +9 +9 1006.5 987.8
10 15.06 Ю 3 24 км в посл. час дождь н/о +10.5 +9.1 91 +8 +8 1006.6 987.9
11 15.06 Ю 1 28 км в посл. час дождь н/о +11.1 +9.3 89 +11 +11 1006.6 987.9
12 15.06 ЮВ 2 7000 м в посл. час дождь н/о +10.6 +9.7 94 +9 +9 1006.7 988.0 1
13 15.06 Ю 1 11 км слаб. морось н/о +11.1 +10.1 94 +12 +12 1006.7 988.0
14 15.06 С 3 11 км слаб. ливневой дождь н/о +10.1 +9.7 97 +8 +8 1006.8 988.0
15 15.06 СЗ 3 600 м туман н/о +9.7 +9.6 99 +7 +7 1006.9 988.1
16 15.06 СЗ 3 4500 м в посл. час дождь н/о +9.6 +9.6 100 +7 +7 1007.3 988.5
17 15.06 СЗ 3 40 км в посл. час дождь н/о +10.4 +10.2 99 +8 +8 1007.2 988.5
18 15.06 С 1 45 км н/о +10.4 +9.0 91 +10 +10 1007.6 988.8 +11.6 2
19 15.06 З 2 35 км в посл. час дождь н/о +10.9 +9.1 89 +9 +9 1007.7 989.0
20 15.06 ЮВ 2 40 км н/о +10.8 +9.6 92 +9 +9 1007.9 989.1
21 15.06 Ю 2 8000 м ливневой дождь н/о +10.2 +8.6 90 +9 +9 1008.2 989.5
22 15.06 СЗ 1 22 км слаб. дождь н/о +9.1 +8.5 96 +9 +9 1008.7 989.8
23 15.06 Ю 2 50 км в посл. час дождь н/о +8.7 +7.8 94 +7 +7 1008.6 989.7
00 16.06 В 2 45 км н/о +8.1 +7.5 96 +6 +6 1008.5 989.6 2
01 16.06 Ю 1 45 км н/о +8.1 +7.2 94 +7 +7 1008.4 989.5
02 16.06 Ю 1 50 км н/о +7.7 +6.7 93 +7 +7 1008.2 989.2
03 16.06 ЮЗ 3 50 км н/о +8.7 +6.5 86 +6 +6 1008.1 989.2
04 16.06 З 2 50 км н/о +8.4 +6.8 90 +6 +6 1007.8 988.9
05 16.06 ЮЗ 3 45 км слаб. морось с дождем н/о +9.1 +7.3 88 +7 +7 1007.9 989.1
06 16.06 ЮЗ 2 30 км слаб. ливневой дождь н/о +9.0 +7.9 93 +8 +8 1008.2 989.3 +7.7 2
07 16.06 З 2 28 км в посл. час дождь н/о +10.2 +8.9 92 +9 +9 1008.5 989.7
08 16.06 ЮЗ 4 50 км н/о +10.7 +7.2 79 +8 +8 1008.7 990.0
09 16.06 З 6 50 км н/о +12.5 +7.7 73 +10 +10 1008.6 990.0
10 16.06 ЮЗ 4 35 км н/о +13.1 +7.1 67 +12 +12 1008.6 990.0
11 16.06 Ю 3 45 км н/о +13.4 +6.7 64 +12 +12 1008.4 989.9
12 16.06 ЮВ 6 40 км н/о +14.4 +9.7 73 +13 +13 1008.0 989.5 0.0
13 16.06 Ю 4 35 км н/о +12.0 +8.8 81 +10 +10 1008.5 989.9
14 16.06 Ю 4 35 км н/о +12.3 +9.4 82 +10 +10 1008.2 989.6
15 16.06 Ю 5 35 км н/о +12.8 +9.3 79 +11 +11 1007.9 989.3
16 16.06 ЮВ 6 25 км н/о +12.3 +8.9 80 +10 +10 1007.4 988.8
17 16.06 Ю 5 45 км н/о +12.1 +9.2 82 +10 +10 1006.9 988.2
18 16.06 Ю 5 9000 м слаб. ливневой дождь н/о +10.7 +9.7 94 +8 +8 1006.6 987.9 +14.6 0.0
19 16.06 Ю 4 15 км слаб. морось с дождем н/о +10.5 +10.1 97 +8 +8 1006.2 987.5
20 16.06 Ю 4 6000 м дождь н/о +10.5 +10.1 97 +8 +8 1005.7 987.0
21 16.06 ЮВ 4 1700 м в посл. час дождь н/о +10.6 +10.4 99 +8 +8 1004.5 985.8
22 16.06 ЮЗ 2 30 км в посл. час дождь н/о +10.4 +10.0 97 +9 +9 1004.6 985.9
23 16.06 ЮЗ 6 6000 м морось с дождем н/о +11.0 +10.2 95 +8 +8 1004.9 986.3
00 17.06 ЮЗ 6 45 км в посл. час дождь н/о +10.0 +9.0 93 +6 +6 1005.5 986.8 4
01 17.06 ЮЗ 5 50 км н/о +9.5 +8.6 94 +6 +6 1006.3 987.5
02 17.06 ЮЗ 4 50 км н/о +8.9 +8.2 95 +6 +6 1006.7 987.9
03 17.06 ЮЗ 4 21 км н/о +9.6 +8.8 95 +7 +7 1006.9 988.1
04 17.06 ЮЗ 5 26 км н/о +10.0 +8.9 93 +7 +7 1007.0 988.2
05 17.06 ЮЗ 5 26 км н/о +10.0 +8.7 92 +7 +7 1007.1 988.4
06 17.06 ЮЗ 5 25 км н/о +10.7 +9.2 90 +8 +8 1007.2 988.5 +8.8 4
07 17.06 ЮЗ 5 27 км н/о +11.1 +8.9 86 +8 +8 1007.2 988.6
08 17.06 ЮЗ 6 22 км н/о +12.4 +9.5 82 +10 +10 1007.3 988.7
09 17.06 ЮЗ 6 40 км н/о +12.8 +9.3 79 +10 +10 1007.2 988.6
10 17.06 ЮЗ 7 11 км н/о +12.5 +8.9 79 +10 +10 1007.0 988.4
11 17.06 ЮЗ 7 40 км в посл. час дождь н/о +14.8 +11.1 78 +13 +13 1006.6 988.1
12 17.06 З 9
{16}
5000 м ливневой дождь н/о +12.5 +9.8 84 +9 +9 1006.8 988.2 0.6
13 17.06 ЮЗ 9
{13}
50 км в посл. час дождь н/о +13.0 +11.0 88 +10 +10 1007.2 988.6
14 17.06 З 8
{14}
40 км н/о +15.8 +11.2 74 +14 +14 1007.7 989.3
15 17.06 З 3 30 км в посл. час дождь н/о +13.5 +11.2 86 +12 +12 1008.6 990.1
16 17.06 З 5 23 км слаб. ливневой дождь н/о +12.3 +8.9 80 +10 +10 1009.1 990.4
17 17.06 З 5 50 км в посл. час дождь н/о +13.3 +8.7 74 +11 +11 1009.1 990.5
18 17.06 Ю 1 45 км в посл. час дождь н/о +11.8 +9.8 88 +12 +12 1009.6 990.9 +16.2 10
19 17.06 Ю 2 35 км в посл. час дождь н/о +12.1 +9.9 86 +11 +11 1009.8 991.1
20 17.06 ЮЗ 2 35 км в посл. час дождь н/о +11.6 +10.4 92 +10 +10 1010.1 991.4
21 17.06 ЮЗ 5 45 км н/о +11.5 +10.0 90 +9 +9 1010.3 991.6
22 17.06 ЮЗ 6 40 км н/о +10.8 +9.3 90 +8 +8 1010.6 991.8
23 17.06 ЮЗ 6 45 км н/о +10.5 +9.2 92 +7 +7 1010.8 992.0
00 18.06 З 5 50 км н/о +10.3 +9.0 92 +7 +7 1010.5 991.7 3
01 18.06 ЮЗ 6 35 км н/о +10.3 +9.3 94 +7 +7 1010.4 991.6
02 18.06 ЮЗ 6 28 км н/о +9.8 +8.8 93 +6 +6 1010.4 991.6
03 18.06 ЮЗ 5 27 км н/о +9.8 +8.6 92 +6 +6 1010.2 991.4
04 18.06 ЮЗ 5 29 км н/о +9.1 +8.1 93 +6 +6 1010.1 991.2
05 18.06 ЮЗ 6 30 км н/о +9.3 +8.2 93 +6 +6 1010.2 991.3
06 18.06 ЮЗ 7 35 км н/о +9.5 +8.1 91 +5 +5 1010.1 991.3 +9.0 3
07 18.06 ЮЗ 6 29 км н/о +10.3 +8.7 90 +7 +7 1010.5 991.7
08 18.06 З 7 26 км н/о +12.1 +9.5 84 +9 +9 1010.5 991.9
09 18.06 З 7
{13}
40 км н/о +12.2 +9.7 85 +9 +9 1010.7 992.0
10 18.06 З 8 30 км н/о +13.5 +10.6 83 +11 +11 1010.6 992.1
11 18.06 З 7 45 км н/о +13.4 +9.5 77 +11 +11 1010.9 992.3
12 18.06 З 8 35 км н/о +15.3 +10.2 72 +13 +13 1010.5 992.1
13 18.06 З 7 40 км н/о +16.0 +10.0 68 +14 +14 1010.4 992.0
14 18.06 З 6 40 км н/о +15.2 +9.9 71 +14 +14 1010.6 992.2
15 18.06 З 4 13 км слаб. ливневой дождь н/о +13.6 +10.4 81 +12 +12 1010.9 992.3
17 18.06 ЮВ 3 28 км слаб. ливневой дождь н/о +13.3 +10.5 83 +12 +12 1010.4 991.8
18 18.06 СВ 1 5000 м сильн. ливневой дождь н/о +11.9 +10.5 91 +12 +12 1010.7 992.0 +17.0 1
19 18.06 ЮВ 1 50 км в посл. час дождь н/о +12.7 +11.0 89 +13 +13 1010.3 991.7
20 18.06 Ю 1 35 км н/о +12.8 +11.3 91 +13 +13 1010.2 991.5
21 18.06 ЮВ 2 27 км н/о +11.1 +10.3 95 +10 +10 1010.3 991.5
22 18.06 З 1 16 км н/о +9.9 +8.3 90 +9 +9 1010.3 991.4

 

Местоположение метеостанции Баллипатрик Форест (Великобритания): широта 55.18 долгота -6.17 высота над уровнем моря 156 м.

В архиве по умолчанию представлена погода в Баллипатрик Форест за последнюю неделю. Архивные данные за месяц целиком и за предыдущие месяцы, начиная с января 2011 года, Вы можете получить, выбрав интересующий диапазон дат из раскрывающегося списка и нажав кнопку "Ввод!".


*Определитесь, кто Вы:
робот инопланетянин человек

Внимание! Время в таблицах - всемирное. Для получения местного времени необходимо прибавить поправку, которая равна 0 ч.

Смотрите также архив погоды в соседних городах и на ближайших метеорологических станциях:

Погода в Портгленоне (Великобритания) (39 км)
Погода в Макрайханише (Великобритания) (41 км)
Погода на Магиллигане (Великобритания) (48 км)
Погода в Порт-Эллене (Великобритания) (56 км)
Погода в Белфасте (Великобритания) (59 км)
Погода на Озере Lough Fea (Великобритания) (66 км)
Погода в Малин Хед (Ирландия) (77 км)
Погода в Аэропорту West Freugh (Великобритания) (86 км)
Погода в Каследерге (Великобритания) (105 км)
Погода в Прествике (Великобритания) (107 км)

Пояснения к столбцам:

Ветер - указаны скорость ветра в м/с - средняя за 10 мин, порывы в срок и между сроками (в фигурных скобках) и направление, откуда дует ветер: С - северный, СВ - северо-восточный, В - восточный, ЮВ - юго-восточный, Ю - южный, ЮЗ - юго-западный, З - западный, СЗ - северо-западный.
Видимость - горизонтальная дальность видимости в метрах или километрах. При видимости от 1 до 10 км при отсутствии осадков обычно наблюдается дымка, при ухудшении видимости до 1 км и менее - туман. В сухую погоду видимость может ухудшаться дымом, пылью или мглою.
Явления - указаны атмосферные явления, наблюдавшиеся в срок или в последний час перед сроком; фигурными скобками обозначены явления, наблюдавшиеся между сроками (за 1-3 часа до срока); квадратными скобками обозначены град или гололедные отложения с указанием их диаметра в мм.
Облачность - указаны через наклонную черту общая и нижняя облачность в баллах и высота нижней границы облаков в метрах; квадратными скобками обозначены формы облаков: Ci - перистые, Cs - перисто-слоистые, Cc - перисто-кучевые, Ac - высококучевые, As - высокослоистые, Sc - слоисто-кучевые, Ns - слоисто-дождевые, Cu - кучевые, Cb - кучево-дождевые. Подробнее классификацию облаков см. в Атласе облаков (PDF).
T - Температура воздуха - температура, измеренная на высоте 2 м над землей.
Td - Температура точки росы - температура, при понижении до которой содержащийся в воздухе водяной пар достигнет насыщения.
f - Относительная влажность воздуха - влажноcть воздуха, измеренная на высоте 2 м над землей.
Te - Эффективная температура - температура, которую ощущает одетый по сезону человек в тени. Характеристика душности погоды. При расчете учитывается влияние влажности воздуха и скорости ветра на теплоощущения человека.
Tes - Эффективная температура на солнце - температура, которую ощущает человек, с поправкой на солнечный нагрев. Характеристика знойности погоды. Зависит от высоты солнца над горизонтом, облачности и скорости ветра. Ночью, в пасмурную погоду, а также при ветре 12 м/с и более поправка равна нулю.
P - Атмосферное давление - приведенное к уровню моря атмосферное давление.
Po - Атмосферное давление - измеренное на уровне метеостанции атмосферное давление.
Tmin - Минимальная температура - минимум температуры воздуха на высоте 2 м над землей.
Tmax - Максимальная температура - максимум температуры воздуха на высоте 2 м над землей.
R - Количество осадков - Количество выпавших осадков за период времени, мм. При наведении курсора мыши на число - период времени, за который выпало указанное количество осадков.
R24 - Количество осадков - Количество выпавших осадков за 24 часа, мм.
S - Снежный покров - Высота снежного покрова, см. При наведении курсора мыши на число - состояние снежного покрова и степень покрытия местности в баллах.